Location: Clair
(33.8067°N, 117.9845°W)
Time: 17:31:58
(UTC+00:00)

Cosmos 1934 Rocket - Pass Details

Date: 14 February 2026
Orbit: 938 x 997 km, 83.0° (Epoch: 8 March)

Event Time Altitude Azimuth Distance (km) Brightness Sun altitude
Rises 12:44:24 0° 197° (SSW) 3,591 6.8 -24.0°
Reaches altitude 10° 12:46:55 10° 201° (SSW) 2,655 6.1 -23.5°
Maximum altitude 12:52:50 55° 279° (W) 1,135 3.9 -22.3°
Drops below altitude 10° 12:58:53 10° 356° (N) 2,706 6.3 -21.0°
Sets 13:01:29 0° 1° (N) 3,665 7.0 -20.5°
